Location: Downe
(51.3167°N, 0.0500°E)
Time: 00:36:50
(UTC+00:00)

CZ-4B R/B - Pass Details

Date: 17 November 2019
Orbit: 809 x 881 km, 99.1° (Epoch: 14 December)

Event Time Altitude Azimuth Distance (km) Brightness Sun altitude
Rises 05:29:35 0° 18° (NNE) 3,363 6.4 -17.0°
Reaches altitude 10° 05:31:58 10° 22° (NNE) 2,434 5.7 -16.6°
Maximum altitude 05:37:18 61° 103° (ESE) 946 3.8 -15.8°
Drops below altitude 10° 05:42:41 10° 183° (S) 2,461 5.7 -15.0°
Sets 05:45:05 0° 187° (S) 3,403 6.4 -14.6°
